H1 CPF 2 NER 2023 6 20 9 171 01 glonass143 H2 2007501 9143 46805 2023 6 20 0 0 0 2023 6 23 23 45 0 900 1 1 0 0 0 1 H9 10 0 60115 0.00000 0 13964787.525 -18128677.985 -11275773.871 10 0 60115 900.00000 0 14797227.251 -19022369.001 -8373220.210 10 0 60115 1800.00000 0 15301350.605 -19715940.277 -5308099.895 10 0 60115 2700.00000 0 15499319.510 -20157274.035 -2139944.127 10 0 60115 3600.00000 0 15424291.499 -20301708.765 1069741.621 10 0 60115 4500.00000 0 15118801.246 -20114049.321 4258671.424 10 0 60115 5400.00000 0 14632761.735 -19570195.365 7364986.032 10 0 60115 6300.00000 0 14021170.236 -18658319.637 10328449.817 10 0 60115 7200.00000 0 13341616.449 -17379546.429 13091614.376 10 0 60115 8100.00000 0 12651698.145 -15748101.625 15600926.502 10 0 60115 9000.00000 0 12006453.223 -13790927.601 17807759.545 10 0 60115 9900.00000 0 11455916.068 -11546778.601 19669348.779 10 0 60115 10800.00000 0 11042900.686 -9064833.565 21149613.431 10 0 60115 11700.00000 0 10801103.376 -6402883.226 22219850.271 10 0 60115 12600.00000 0 10753604.285 -3625165.773 22859286.065 10 0 60115 13500.00000 0 10911830.561 -799939.641 23055478.803 10 0 60115 14400.00000 0 11275024.624 2003107.220 22804560.298 10 0 60115 15300.00000 0 11830240.205 4715505.569 22111315.500 10 0 60115 16200.00000 0 12552866.901 7272602.087 20989096.735 10 0 60115 17100.00000 0 13407662.126 9615999.074 19459573.890 10 0 60115 18000.00000 0 14350248.119 11695736.303 17552324.546 10 0 60115 18900.00000 0 15329012.215 13472125.112 15304270.943 10 0 60115 19800.00000 0 16287331.445 14917158.899 12758973.568 10 0 60115 20700.00000 0 17166028.616 16015441.522 9965794.039 10 0 60115 21600.00000 0 17905956.828 16764594.946 6978942.660 10 0 60115 22500.00000 0 18450603.501 17175129.229 3856428.545 10 0 60115 23400.00000 0 18748603.634 17269780.390 658932.485 10 0 60115 24300.00000 0 18756055.381 17082344.265 -2551375.393 10 0 60115 25200.00000 0 18438539.053 16656055.832 -5712049.794 10 0 60115 26100.00000 0 17772752.867 16041582.911 -8761591.835 10 0 60115 27000.00000 0 16747694.959 15294719.691 -11640653.417 10 0 60115 27900.00000 0 15365340.239 14473878.340 -14293200.018 10 0 60115 28800.00000 0 13640782.241 13637485.653 -16667608.367 10 0 60115 29700.00000 0 11601832.735 12841395.652 -18717676.893 10 0 60115 30600.00000 0 9288094.927 12136428.210 -20403528.827 10 0 60115 31500.00000 0 6749548.365 11566138.345 -21692390.048 10 0 60115 32400.00000 0 4044704.212 11164910.679 -22559226.586 10 0 60115 33300.00000 0 1238407.557 10956459.646 -22987229.558 10 0 60115 34200.00000 0 -1600621.819 10952798.622 -22968138.468 10 0 60115 35100.00000 0 -4402408.040 11153721.108 -22502397.022 10 0 60115 36000.00000 0 -7098388.425 11546815.460 -21599138.896 10 0 60115 36900.00000 0 -9624022.834 12108011.986 -20276004.163 10 0 60115 37800.00000 0 -11921235.115 12802638.842 -18558790.324 10 0 60115 38700.00000 0 -13940585.883 13586941.703 -16480944.990 10 0 60115 39600.00000 0 -15643087.114 14410002.649 -14082910.345 10 0 60115 40500.00000 0 -17001584.174 15215976.984 -11411332.297 10 0 60115 41400.00000 0 -18001648.977 15946553.278 -8518149.872 10 0 60115 42300.00000 0 -18641948.497 16543532.584 -5459582.762 10 0 60115 43200.00000 0 -18934074.827 16951417.824 -2295036.921 10 0 60115 44100.00000 0 -18901845.540 17119903.913 914050.298 10 0 60115 45000.00000 0 -18580105.267 17006163.473 4105402.774 10 0 60115 45900.00000 0 -18013080.224 16576831.709 7217112.678 10 0 60115 46800.00000 0 -17252356.026 15809606.652 10188838.488 10 0 60115 47700.00000 0 -16354564.675 14694397.336 12962970.743 10 0 60115 48600.00000 0 -15378878.555 13233971.316 15485743.208 10 0 60115 49500.00000 0 -14384416.953 11444073.994 17708268.387 10 0 60115 50400.00000 0 -13427674.048 9353014.113 19587477.932 10 0 60115 51300.00000 0 -12560076.001 7000731.917 21086950.482 10 0 60115 52200.00000 0 -11825769.177 4437387.794 22177611.747 10 0 60115 53100.00000 0 -11259731.718 1721528.912 22838294.003 10 0 60115 54000.00000 0 -10886287.113 -1082091.347 23056144.797 10 0 60115 54900.00000 0 -10718081.688 -3904952.147 22826877.321 10 0 60115 55800.00000 0 -10755568.738 -6677362.453 22154857.673 10 0 60115 56700.00000 0 -10987021.032 -9331110.556 21053027.067 10 0 60115 57600.00000 0 -11389071.548 -11802057.221 19542659.888 10 0 60115 58500.00000 0 -11927760.346 -14032565.929 17652961.452 10 0 60115 59400.00000 0 -12560044.319 -15973670.000 15420512.209 10 0 60115 60300.00000 0 -13235707.094 -17586887.001 12888568.049 10 0 60115 61200.00000 0 -13899589.300 -18845605.032 10106229.234 10 0 60115 62100.00000 0 -14494045.627 -19735983.114 7127493.224 10 0 60115 63000.00000 0 -14961525.069 -20257327.950 4010209.141 10 0 60115 63900.00000 0 -15247165.133 -20421931.194 814953.955 10 0 60115 64800.00000 0 -15301289.671 -20254374.056 -2396147.659 10 0 60115 65700.00000 0 -15081703.728 -19790328.659 -5560636.456 10 0 60115 66600.00000 0 -14555687.057 -19074906.930 -8616940.373 10 0 60115 67500.00000 0 -13701600.561 -18160627.184 -11505580.293 10 0 60115 68400.00000 0 -12510036.226 -17105084.862 -14170335.390 10 0 60115 69300.00000 0 -10984460.502 -15968426.517 -16559344.479 10 0 60115 70200.00000 0 -9141322.592 -14810734.475 -18626121.189 10 0 60115 71100.00000 0 -7009621.834 -13689433.232 -20330462.707 10 0 60115 72000.00000 0 -4629951.317 -12656827.600 -21639234.098 10 0 60115 72900.00000 0 -2053056.993 -11757876.692 -22527012.941 10 0 60115 73800.00000 0 662028.118 -11028297.646 -22976581.956 10 0 60115 74700.00000 0 3450197.138 -10493078.743 -22979260.341 10 0 60115 75600.00000 0 6242738.086 -10165464.064 -22535067.858 10 0 60115 76500.00000 0 8969955.708 -10046451.761 -21652718.900 10 0 60115 77400.00000 0 11563837.587 -10124826.255 -20349447.107 10 0 60115 78300.00000 0 13960654.062 -10377722.078 -18650664.283 10 0 60115 79200.00000 0 16103384.347 -10771694.746 -16589460.547 10 0 60115 80100.00000 0 17943868.550 -11264252.604 -14205955.677 10 0 60115 81000.00000 0 19444596.823 -11805784.304 -11546514.455 10 0 60115 81900.00000 0 20580062.139 -12341799.884 -8662841.426 10 0 60115 82800.00000 0 21337621.390 -12815390.293 -5610972.927 10 0 60115 83700.00000 0 21717830.223 -13169801.060 -2450186.157 10 0 60115 84600.00000 0 21734238.992 -13351011.077 758153.259 10 0 60115 85500.00000 0 21412659.828 -13310207.338 3951782.582 10 0 60116 0.00000 0 20789936.978 -13006051.035 7068748.560 10 0 60116 900.00000 0 19912272.795 -12406639.013 10048607.496 10 0 60116 1800.00000 0 18833181.529 -11491078.219 12833591.379 10 0 60116 2700.00000 0 17611156.333 -10250606.045 15369723.312 10 0 60116 3600.00000 0 16307148.472 -8689209.417 17607856.862 10 0 60116 4500.00000 0 14981964.237 -6823715.948 19504621.499 10 0 60116 5400.00000 0 13693688.401 -4683352.515 21023256.260 10 0 60116 6300.00000 0 12495241.643 -2308788.612 22134316.351 10 0 60116 7200.00000 0 11432173.544 249296.909 22816239.707 10 0 60116 8100.00000 0 10540782.797 2932067.529 23055763.199 10 0 60116 9000.00000 0 9846642.590 5674723.846 22848180.817 10 0 60116 9900.00000 0 9363592.376 8408951.895 22197438.907 10 0 60116 10800.00000 0 9093237.890 11065524.981 21116066.382 10 0 60116 11700.00000 0 9024980.279 13576952.458 19624940.697 10 0 60116 12600.00000 0 9136573.289 15880066.629 17752893.262 10 0 60116 13500.00000 0 9395185.455 17918441.148 15536160.917 10 0 60116 14400.00000 0 9758923.082 19644540.855 13017692.978 10 0 60116 15300.00000 0 10178750.351 21021513.690 10246326.249 10 0 60116 16200.00000 0 10600725.918 22024549.861 7275843.114 10 0 60116 17100.00000 0 10968461.697 22641751.244 4163930.364 10 0 60116 18000.00000 0 11225699.732 22874474.285 971058.737 10 0 60116 18900.00000 0 11318897.608 22737131.773 -2240694.983 10 0 60116 19800.00000 0 11199712.125 22256461.659 -5408860.006 10 0 60116 20700.00000 0 10827274.926 21470293.735 -8471793.407 10 0 60116 21600.00000 0 10170162.363 20425866.336 -11369887.207 10 0 60116 22500.00000 0 9207974.769 19177764.452 -14046736.244 10 0 60116 23400.00000 0 7932456.806 17785566.749 -16450243.169 10 0 60116 24300.00000 0 6348110.103 16311301.341 -18533638.346 10 0 60116 25200.00000 0 4472270.954 14816818.152 -20256394.254 10 0 60116 26100.00000 0 2334648.593 13361189.087 -21585016.285 10 0 60116 27000.00000 0 -23657.607 11998245.775 -22493694.544 10 0 60116 27900.00000 0 -2551621.686 10774358.510 -22964804.120 10 0 60116 28800.00000 0 -5190174.816 9726549.591 -22989244.460 10 0 60116 29700.00000 0 -7874431.044 8881019.803 -22566611.650 10 0 60116 30600.00000 0 -10536162.673 8252149.148 -21705200.751 10 0 60116 31500.00000 0 -13106422.464 7842012.831 -20421838.551 10 0 60116 32400.00000 0 -15518203.822 7640431.664 -18741550.374 10 0 60116 33300.00000 0 -17709028.657 7625553.494 -16697067.720 10 0 60116 34200.00000 0 -19623355.559 7764939.967 -14328186.546 10 0 60116 35100.00000 0 -21214708.604 8017111.632 -11680988.865 10 0 60116 36000.00000 0 -22447438.752 8333485.172 -8806942.958 10 0 60116 36900.00000 0 -23298045.183 8660620.084 -5761899.921 10 0 60116 37800.00000 0 -23756002.425 8942679.185 -2605006.248 10 0 60116 38700.00000 0 -23824059.788 9123998.384 602446.171 10 0 60116 39600.00000 0 -23518001.771 9151656.732 3798210.052 10 0 60116 40500.00000 0 -22865880.656 8977937.805 6920289.424 10 0 60116 41400.00000 0 -21906754.537 8562578.289 9908139.532 10 0 60116 42300.00000 0 -20688984.624 7874708.652 12703836.718 10 0 60116 43200.00000 0 -19268163.863 6894403.904 15253195.794 10 0 60116 44100.00000 0 -17704764.057 5613778.792 17506813.769 10 0 60116 45000.00000 0 -16061600.103 4037580.953 19421020.230 10 0 60116 45900.00000 0 -14401217.229 2183256.369 20958716.779 10 0 60116 46800.00000 0 -12783309.957 80483.394 22090090.068 10 0 60116 47700.00000 0 -11262279.968 -2229806.410 22793185.379 10 0 60116 48600.00000 0 -9885034.021 -4696881.302 23054330.296 10 0 60116 49500.00000 0 -8689112.995 -7262077.388 22868400.658 10 0 60116 50400.00000 0 -7701229.413 -9861005.651 22238923.762 10 0 60116 51300.00000 0 -6936273.878 -12426007.929 21178016.567 10 0 60116 52200.00000 0 -6396831.512 -14888761.370 19706159.566 10 0 60116 53100.00000 0 -6073228.386 -17182924.363 17851809.852 10 0 60116 54000.00000 0 -5944105.973 -19246714.930 15650859.869 10 0 60116 54900.00000 0 -5977499.595 -21025314.852 13145951.197 10 0 60116 55800.00000 0 -6132375.720 -22472999.556 10385655.667 10 0 60116 56700.00000 0 -6360563.450 -23554904.796 7423538.748 10 0 60116 57600.00000 0 -6608998.767 -24248355.904 4317122.774 10 0 60116 58500.00000 0 -6822186.485 -24543703.453 1126769.859 10 0 60116 59400.00000 0 -6944775.308 -24444629.757 -2085493.735 10 0 60116 60300.00000 0 -6924136.202 -23967912.876 -5257188.529 10 0 60116 61200.00000 0 -6712833.822 -23142657.734 -8326603.789 10 0 60116 62100.00000 0 -6270885.062 -22009026.621 -11234005.889 10 0 60116 63000.00000 0 -5567707.615 -20616522.658 -13922808.633 10 0 60116 63900.00000 0 -4583674.625 -19021898.832 -16340681.826 10 0 60116 64800.00000 0 -3311208.205 -17286781.120 -18440575.760 10 0 60116 65700.00000 0 -1755364.230 -15475106.180 -20181641.168 10 0 60116 66600.00000 0 66117.517 -13650481.919 -21530026.371 10 0 60116 67500.00000 0 2123301.098 -11873582.100 -22459536.139 10 0 60116 68400.00000 0 4375060.581 -10199684.532 -22952139.547 10 0 60116 69300.00000 0 6770563.186 -8676455.958 -22998317.342 10 0 60116 70200.00000 0 9251168.030 -7342076.041 -22597242.439 10 0 60116 71100.00000 0 11752661.613 -6223778.303 -21756790.539 10 0 60116 72000.00000 0 14207737.141 -5336868.127 -20493381.053 10 0 60116 72900.00000 0 16548614.590 -4684257.700 -18831651.833 10 0 60116 73800.00000 0 18709692.600 -4256535.939 -16803974.305 10 0 60116 74700.00000 0 20630121.922 -4032568.939 -14449818.695 10 0 60116 75600.00000 0 22256193.486 -3980604.162 -11814981.894 10 0 60116 76500.00000 0 23543441.903 -4059830.416 -8950693.133 10 0 60116 77400.00000 0 24458377.133 -4222326.570 -5912615.104 10 0 60116 78300.00000 0 24979772.665 -4415315.662 -2759760.139 10 0 60116 79200.00000 0 25099457.156 -4583628.309 446657.248 10 0 60116 80100.00000 0 24822577.288 -4672270.651 3644408.924 10 0 60116 81000.00000 0 24167321.768 -4628987.811 6771459.522 10 0 60116 81900.00000 0 23164118.943 -4406714.238 9767167.185 10 0 60116 82800.00000 0 21854342.415 -3965807.223 12573455.380 10 0 60116 83700.00000 0 20288579.462 -3275969.167 15135933.310 10 0 60116 84600.00000 0 18524535.110 -2317777.351 17404943.661 10 0 60116 85500.00000 0 16624659.588 -1083756.477 19336517.936 10 0 60117 0.00000 0 14653598.279 421051.483 20893221.530 10 0 60117 900.00000 0 12675569.054 2179045.714 22044873.750 10 0 60117 1800.00000 0 10751778.344 4160554.016 22769127.578 10 0 60117 2700.00000 0 8937979.248 6324832.925 23051901.404 10 0 60117 3600.00000 0 7282275.082 8621538.467 22887652.619 10 0 60117 4500.00000 0 5823257.914 10992608.633 22279488.769 10 0 60117 5400.00000 0 4588558.949 13374480.865 21239113.781 10 0 60117 6300.00000 0 3593870.512 15700553.873 19786609.757 10 0 60117 7200.00000 0 2842479.955 17903792.741 17950057.730 10 0 60117 8100.00000 0 2325334.606 19919369.958 15765003.729 10 0 60117 9000.00000 0 2021634.863 21687233.085 13273779.368 10 0 60117 9900.00000 0 1899930.452 23154492.195 10524689.080 10 0 60117 10800.00000 0 1919673.685 24277527.346 7571078.857 10 0 60117 11700.00000 0 2033164.135 25023727.496 4470303.898 10 0 60117 12600.00000 0 2187802.393 25372787.363 1282614.947 10 0 60117 13500.00000 0 2328557.160 25317507.109 -1930015.014 10 0 60117 14400.00000 0 2400540.557 24864060.474 -5105100.526 10 0 60117 15300.00000 0 2351581.622 24031719.464 -8180865.632 10 0 60117 16200.00000 0 2134687.828 22852046.724 -11097453.455 10 0 60117 17100.00000 0 1710288.983 21367589.335 -13798098.924 10 0 60117 18000.00000 0 1048167.120 19630129.010 -16230240.880 10 0 60117 18900.00000 0 128989.284 17698562.485 -18346551.153 10 0 60117 19800.00000 0 -1054622.929 15636501.490 -20105860.061 10 0 60117 20700.00000 0 -2497533.487 13509693.483 -21473959.933 10 0 60117 21600.00000 0 -4182066.401 11383371.643 -22424271.012 10 0 60117 22500.00000 0 -6078516.648 9319645.306 -22938356.918 10 0 60117 23400.00000 0 -8146176.858 7375040.095 -23006279.955 10 0 60117 24300.00000 0 -10334837.402 5598290.250 -22626789.802 10 0 60117 25200.00000 0 -12586697.600 4028474.840 -21807342.365 10 0 60117 26100.00000 0 -14838608.500 2693574.792 -20563948.864 10 0 60117 27000.00000 0 -17024553.816 1609509.816 -18920858.481 10 0 60117 27900.00000 0 -19078265.668 779694.030 -16910081.029 10 0 60117 28800.00000 0 -20935866.061 195127.208 -14570759.186 10 0 60117 29700.00000 0 -22538424.009 -164983.901 -11948402.698 10 0 60117 30600.00000 0 -23834321.732 -332102.048 -9093999.604 10 0 60117 31500.00000 0 -24781331.290 -346782.628 -6063021.988 10 0 60117 32400.00000 0 -25348315.252 -256711.419 -2914345.794 10 0 60117 33300.00000 0 -25516480.714 -114440.897 290894.078 10 0 60117 34200.00000 0 -25280134.736 25078.311 3490490.879 10 0 60117 35100.00000 0 -24646910.251 107065.820 6622372.106 10 0 60117 36000.00000 0 -23637453.592 79470.749 9625801.062 10 0 60117 36900.00000 0 -22284587.339 -104586.577 12442550.604 10 0 60117 37800.00000 0 -20631983.978 -484593.723 15018026.546 10 0 60117 38700.00000 0 -18732406.103 -1090739.846 17302319.365 10 0 60117 39600.00000 0 -16645586.741 -1942404.483 19251164.438 10 0 60117 40500.00000 0 -14435838.023 -3047105.329 20826792.927 10 0 60117 41400.00000 0 -12169487.390 -4399949.745 21998657.676 10 0 60117 42300.00000 0 -9912247.400 -5983613.798 22744020.807 10 0 60117 43200.00000 0 -7726627.686 -7768850.847 23048392.324 10 0 60117 44100.00000 0 -5669495.620 -9715509.783 22905811.633 10 0 60117 45000.00000 0 -3789886.146 -11774021.982 22318966.692 10 0 60117 45900.00000 0 -2127150.829 -13887296.601 21299148.260 10 0 60117 46800.00000 0 -709522.260 -15992946.890 19866039.628 10 0 60117 47700.00000 0 446847.063 -18025756.130 18047345.080 10 0 60117 48600.00000 0 1338331.841 -19920281.630 15878263.259 10 0 60117 49500.00000 0 1973748.793 -21613488.959 13400814.556 10 0 60117 50400.00000 0 2373742.992 -23047306.800 10663034.486 10 0 60117 51300.00000 0 2569671.734 -24170995.606 7718047.774 10 0 60117 52200.00000 0 2602033.116 -24943230.501 4623040.464 10 0 60117 53100.00000 0 2518505.862 -25333810.365 1438149.693 10 0 60117 54000.00000 0 2371683.698 -25324920.485 -1774707.252 10 0 60117 54900.00000 0 2216600.682 -24911894.709 -4953041.514 10 0 60117 55800.00000 0 2108153.176 -24103444.103 -8035014.627 10 0 60117 56700.00000 0 2098528.676 -22921341.681 -10960649.297 10 0 60117 57600.00000 0 2234751.667 -21399575.862 -13673004.476 10 0 60117 58500.00000 0 2556451.725 -19583007.902 -16119290.934 10 0 60117 59400.00000 0 3093949.666 -17525589.614 -18251904.842 10 0 60117 60300.00000 0 3866743.943 -15288216.274 -20029358.710 10 0 60117 61200.00000 0 4882462.403 -12936304.984 -21417091.178 10 0 60117 62100.00000 0 6136324.653 -10537200.155 -22388139.888 10 0 60117 63000.00000 0 7611138.593 -8157514.804 -22923664.464 10 0 60117 63900.00000 0 9277831.972 -5860518.838 -23013309.754 10 0 60117 64800.00000 0 11096497.245 -3703683.104 -22655402.695 10 0 60117 65700.00000 0 13017906.380 -1736481.198 -21856979.429 10 0 60117 66600.00000 0 14985432.440 1460.061 -20633642.563 10 0 60117 67500.00000 0 16937297.742 1481785.458 -19009251.766 10 0 60117 68400.00000 0 18809054.667 2688353.457 -17015453.974 10 0 60117 69300.00000 0 20536195.415 3617657.744 -14691062.640 10 0 60117 70200.00000 0 22056781.588 4278712.449 -12081298.274 10 0 60117 71100.00000 0 23313983.644 4692407.721 -9236905.226 10 0 60117 72000.00000 0 24258424.010 4890364.534 -6213162.113 10 0 60117 72900.00000 0 24850225.917 4913338.636 -3068805.339 10 0 60117 73800.00000 0 25060682.355 4809242.385 135113.155 10 0 60117 74700.00000 0 24873475.531 4630869.137 3336411.448 10 0 60117 75600.00000 0 24285396.123 4433417.220 6472983.293 10 0 60117 76500.00000 0 23306532.535 4271918.734 9484000.396 10 0 60117 77400.00000 0 21959922.633 4198682.159 12311088.008 10 0 60117 78300.00000 0 20280682.770 4260856.958 14899451.238 10 0 60117 79200.00000 0 18314650.617 4498222.985 17198930.706 10 0 60117 80100.00000 0 16116598.439 4941297.907 19164967.635 10 0 60117 81000.00000 0 13748090.969 5609842.386 20759460.434 10 0 60117 81900.00000 0 11275076.590 6511826.130 21951496.983 10 0 60117 82800.00000 0 8765311.251 7642898.691 22717949.228 10 0 60117 83700.00000 0 6285721.256 8986387.947 23043919.207 10 0 60117 84600.00000 0 3899813.333 10513827.400 22923028.358 10 0 60117 85500.00000 0 1665238.441 12185991.547 22357544.616 10 0 60118 0.00000 0 -368390.474 13954397.345 21358344.804 10 0 60118 900.00000 0 -2161338.171 15763211.605 19944711.912 10 0 60118 1800.00000 0 -3685165.903 17551483.720 18143971.819 10 0 60118 2700.00000 0 -4923674.535 19255614.896 15990973.719 10 0 60118 3600.00000 0 -5873330.394 20811959.308 13527424.431 10 0 60118 4500.00000 0 -6543157.544 22159449.836 10801087.975 10 0 60118 5400.00000 0 -6954101.125 23242138.424 7864865.092 10 0 60118 6300.00000 0 -7137888.763 24011544.235 4775769.845 10 0 60118 7200.00000 0 -7135438.324 24428710.342 1593822.899 10 0 60118 8100.00000 0 -6994879.607 24465881.591 -1619117.035 10 0 60118 9000.00000 0 -6769274.163 24107731.902 -4800560.514 10 0 60118 9900.00000 0 -6514130.464 23352088.205 -7888609.283 10 0 60118 10800.00000 0 -6284820.585 22210119.389 -10823168.164 10 0 60118 11700.00000 0 -6134008.891 20705981.385 -13547122.436 10 0 60118 12600.00000 0 -6109202.786 18875932.555 -16007456.823 10 0 60118 13500.00000 0 -6250530.422 16766956.100 -18156293.568 10 0 60118 14400.00000 0 -6588840.495 14434947.009 -19951828.791 10 0 60118 15300.00000 0 -7144205.496 11942539.547 -21359148.559 10 0 60118 16200.00000 0 -7924892.482 9356666.229 -22350908.720 10 0 60118 17100.00000 0 -8926845.514 6745950.385 -22907865.404 10 0 60118 18000.00000 0 -10133702.130 4178041.206 -23019246.176 10 0 60118 18900.00000 0 -11517343.592 1717002.240 -22682955.055 10 0 60118 19800.00000 0 -13038956.087 -579138.225 -21905607.860 10 0 60118 20700.00000 0 -14650558.524 -2660573.463 -20702397.644 10 0 60118 21600.00000 0 -16296932.929 -4487551.177 -19096793.227 10 0 60118 22500.00000 0 -17917876.553 -6031777.794 -17120076.992 10 0 60118 23400.00000 0 -19450681.218 -7277337.087 -14810731.194 10 0 60118 24300.00000 0 -20832735.945 -8221086.473 -12213684.910 10 0 60118 25200.00000 0 -22004143.684 -8872516.286 -9379436.473 10 0 60118 26100.00000 0 -22910242.319 -9253079.797 -6363068.625 10 0 60118 27000.00000 0 -23503924.236 -9395023.978 -3223175.786 10 0 60118 27900.00000 0 -23747657.136 -9339771.886 -20724.489 10 0 60118 28800.00000 0 -23615121.393 -9135926.266 3182130.606 10 0 60118 29700.00000 0 -23092395.415 -8836979.740 6323251.934 10 0 60118 30600.00000 0 -22178639.423 -8498829.082 9341722.015 10 0 60118 31500.00000 0 -20886249.150 -8177199.037 12179020.841 10 0 60118 32400.00000 0 -19240473.059 -7925084.707 14780155.072 10 0 60118 33300.00000 0 -17278509.036 -7790320.415 17094717.562 10 0 60118 34200.00000 0 -15048118.052 -7813377.478 19077857.255 10 0 60118 35100.00000 0 -12605812.166 -8025483.463 20691141.380 10 0 60118 36000.00000 0 -10014691.652 -8447142.010 21903294.109 10 0 60118 36900.00000 0 -7342020.350 -9087115.490 22690798.087 10 0 60118 37800.00000 0 -4656638.885 -9941913.566 23038347.916 10 0 60118 38700.00000 0 -2026321.950 -10995809.718 22939147.231 10 0 60118 39600.00000 0 484811.937 -12221385.980 22395043.803 10 0 60118 40500.00000 0 2818731.960 -13580584.237 21416499.878 10 0 60118 41400.00000 0 4925668.004 -15026221.450 20022397.818 10 0 60118 42300.00000 0 6765935.809 -16503906.726 18239684.035 10 0 60118 43200.00000 0 8311339.140 -17954281.298 16102857.099 10 0 60118 44100.00000 0 9546091.136 -19315488.621 13653308.821 10 0 60118 45000.00000 0 10467216.765 -20525771.761 10938530.036 10 0 60118 45900.00000 0 11084419.891 -21526089.396 8011195.524 10 0 60118 46800.00000 0 11419420.788 -22262640.426 4928145.153 10 0 60118 47700.00000 0 11504792.209 -22689190.464 1749280.679 10 0 60118 48600.00000 0 11382343.464 -22769101.421 -1463600.352 10 0 60118 49500.00000 0 11101121.158 -22476977.499 -4648010.622 10 0 60118 50400.00000 0 10715111.776 -21799856.961 -7741994.837 10 0 60118 51300.00000 0 10280744.122 -20737898.102 -10685342.695 10 0 60118 52200.00000 0 9854298.284 -19304529.279 -13420768.523 10 0 60118 53100.00000 0 9489331.851 -17526055.600 -15895033.632 10 0 60118 54000.00000 0 9234233.391 -15440737.977 -18059988.804 10 0 60118 54900.00000 0 9130007.665 -13097382.549 -19873516.014 10 0 60118 55800.00000 0 9208387.104 -10553499.302 -21300350.694 10 0 60118 56700.00000 0 9490350.023 -7873106.691 -22312768.467 10 0 60118 57600.00000 0 9985108.638 -5124273.932 -22891123.110 10 0 60118 58500.00000 0 10689609.918 -2376503.425 -23024225.599 10 0 60118 59400.00000 0 11588570.470 301937.731 -22709557.275 10 0 60118 60300.00000 0 12655044.095 2846626.339 -21953313.444 10 0 60118 61200.00000 0 13851498.074 5199423.728 -20770276.998 10 0 60118 62100.00000 0 15131352.895 7310647.580 -19183524.933 10 0 60118 63000.00000 0 16440920.541 9140885.592 -17223973.725 10 0 60118 63900.00000 0 17721659.747 10662376.648 -14929772.726 10 0 60118 64800.00000 0 18912653.289 11859903.435 -12345557.544 10 0 60118 65700.00000 0 19953203.037 12731160.945 -9521578.101 10 0 60118 66600.00000 0 20785433.527 13286587.222 -6512718.577 10 0 60118 67500.00000 0 21356794.494 13548665.339 -3377428.471 10 0 60118 68400.00000 0 21622357.081 13550727.682 -176585.797 10 0 60118 69300.00000 0 21546807.116 13335314.429 3027685.240 10 0 60118 70200.00000 0 21106051.705 12952156.724 6173218.927 10 0 60118 71100.00000 0 20288371.625 12455870.584 9199011.639 10 0 60118 72000.00000 0 19095071.106 11903459.493 12046400.953 10 0 60118 72900.00000 0 17540597.655 11351731.413 14660197.667 10 0 60118 73800.00000 0 15652126.664 10854739.155 16989749.164 10 0 60118 74700.00000 0 13468627.757 10461351.868 18989914.078 10 0 60118 75600.00000 0 11039451.275 10213059.579 20621930.115 10 0 60118 76500.00000 0 8422492.954 10142102.839 21854159.033 10 0 60118 77400.00000 0 5682012.172 10270005.819 22662695.124 10 0 60118 78300.00000 0 2886193.226 10606574.376 23031826.090 10 0 60118 79200.00000 0 104549.530 11149401.290 22954337.891 10 0 60118 80100.00000 0 -2594722.913 11883899.881 22431657.795 10 0 60118 81000.00000 0 -5147334.368 12783865.325 21473832.753 10 0 60118 81900.00000 0 -7495326.376 13812541.144 20099343.021 10 0 60118 82800.00000 0 -9589233.307 14924147.254 18334753.856 10 0 60118 83700.00000 0 -11389891.440 16065806.673 16214211.039 10 0 60118 84600.00000 0 -12869820.924 17179791.053 13778788.899 10 0 60118 85500.00000 0 -14014123.380 18205991.533 11075702.363 99